Tracking 28790 objects as of 19-Apr-2024
HD Live streaming from Space Station
objects crossing your sky now

FENGYUN 1C DEB

Track FENGYUN 1C DEB now!
10-day predictions


NORAD ID: 30471
Int'l Code: 1999-025AGJ
Perigee: 808.1 km
Apogee: 941.4 km
Inclination: 99.1 °
Period: 102.3 minutes
Semi major axis: 7245 km
RCS: 0.033 m2 (small)
Launch date: May 10, 1999
Source: People's Republic of China (PRC)
Launch site: Taiyaun Space Center, China (TSC)

Note: This is SATELLITE DEBRIS
Your satellite tracking list
Your tracking list is empty




NASA's NSSDC Master Catalog

Two Line Element Set (TLE):
1 30471U 99025AGJ 24109.76922258  .00006897  00000-0  39542-2 0  9992
2 30471  99.0737 185.8960 0092028 148.0079 340.6434 14.07590454879398
Source of the keplerian elements: AFSPC